This is the latest recevied weather packets stored in our database for station/object KE8AFF-13. If no packets are shown the sender has not sent any weather packets the latest 1 day(s).
| Time | Temp. | Humidity | Pressure | Rain* | Wind** | Luminosity | Snow |
|---|---|---|---|---|---|---|---|
| 1836274571 | 19.44° C | 83% | 1020.1 hPa | 0 mm | 0.45 m/s, 180° | 0 W/m² | - |
| 1836274425 | 19.44° C | 82% | 1020.3 hPa | 0 mm | 0.45 m/s, 110° | 0 W/m² | - |
| 1836274269 | 19.44° C | 83% | 1020.1 hPa | 0 mm | 0 m/s | 0 W/m² | - |
| 1836274123 | 19.44° C | 83% | 1020.3 hPa | 0 mm | 0.45 m/s, 168° | 0 W/m² | - |
| 1836273968 | 19.44° C | 83% | 1020.1 hPa | 0 mm | 1.34 m/s, 98° | 0 W/m² | - |
| 1778040204 | 7.78° C | 99% | 1007.5 hPa | 1.27 mm | 0.45 m/s, 247° | 0 W/m² | - |
| 1778039900 | 7.78° C | 99% | 1007.6 hPa | 0.51 mm | 1.34 m/s, 22° | 0 W/m² | - |
| 1778039597 | 7.78° C | 99% | 1007.7 hPa | 0.51 mm | 1.34 m/s, 20° | 0 W/m² | - |
| 1778039294 | 7.78° C | 99% | 1007.8 hPa | 1.78 mm | 0.45 m/s, 224° | 0 W/m² | - |
| 1778038992 | 7.78° C | 99% | 1007.7 hPa | 2.29 mm | 3.13 m/s, 20° | 0 W/m² | - |
| 1778038689 | 7.78° C | 99% | 1007.8 hPa | 1.78 mm | 1.34 m/s, 82° | 0 W/m² | - |
| 1778038385 | 7.78° C | 99% | 1008 hPa | 0.51 mm | 1.34 m/s, 335° | 0 W/m² | - |
| 1778038082 | 7.78° C | 99% | 1007.9 hPa | 0.51 mm | 1.34 m/s, 353° | 0 W/m² | - |
| 1778037779 | 7.78° C | 99% | 1008.1 hPa | 1.27 mm | 1.34 m/s, 338° | 0 W/m² | - |
| 1778037475 | 8.33° C | 99% | 1008 hPa | 1.78 mm | 2.68 m/s, 47° | 0 W/m² | - |
| 1778037173 | 8.33° C | 99% | 1008.1 hPa | 1.78 mm | 0.89 m/s, 326° | 0 W/m² | - |
| 1778036871 | 8.33° C | 99% | 1008.5 hPa | 2.29 mm | 1.79 m/s, 317° | 0 W/m² | - |
| 1778036569 | 8.33° C | 99% | 1008.7 hPa | 3.05 mm | 1.79 m/s, 338° | 0 W/m² | - |
| 1778036265 | 8.33° C | 99% | 1008.5 hPa | 3.05 mm | 1.79 m/s, 16° | 0 W/m² | - |
| 1778035961 | 8.33° C | 99% | 1008.6 hPa | 1.78 mm | 1.34 m/s, 341° | 0 W/m² | - |
| 1778035659 | 8.33° C | 99% | 1008.6 hPa | 1.27 mm | 1.34 m/s, 230° | 0 W/m² | - |
| 1778035355 | 8.33° C | 99% | 1008.8 hPa | 1.27 mm | 1.34 m/s, 338° | 0 W/m² | - |
| 1778035051 | 8.33° C | 99% | 1008.7 hPa | 1.78 mm | 2.24 m/s, 348° | 0 W/m² | - |
| 1778034749 | 8.33° C | 99% | 1009 hPa | 1.27 mm | 3.13 m/s, 351° | 0 W/m² | - |
| 1778034445 | 8.33° C | 99% | 1008.9 hPa | 1.27 mm | 2.24 m/s, 346° | 0 W/m² | - |
* Rain latest hour (hover to see other rain measurements)
** Current wind speed in m/s (hover to see current wind gust speed)